#Datum;Uhrzeit;WR;Pac;DaySum;Status;WR;Pac;DaySum;Status;Pdc1;Udc;Temp;WR;Pac;DaySum;Status;Pdc1;Udc;Temp;WR;Pac;DaySum;Status;Pdc1;Udc;Temp;WR;Pac;DaySum;Status;Pdc1;Pdc2;Udc1;Udc2;Temp;WR;Pac;DaySum;Status;Pdc1;Pdc2;Udc1;Udc2;Temp;WR;Pac;DaySum;Status;Pdc1;Udc;Temp;WR;Pac;DaySum;Status;Pdc1;Udc;Temp;WR;Pac;DaySum;Status;Pdc1;Udc;Temp
25.02.21;23:55:00;1;556;13134;0;2;0;23406;0;0;0;0;3;0;15026;0;0;0;0;4;0;21766;0;0;0;0;5;0;0;0;0;0;0;0;0;6;0;40148;0;0;0;0;0;0;7;0;35807;0;0;0;0;8;0;35199;0;0;0;0;9;0;19031;0;0;0;0
25.02.21;23:50:00;1;574;13088;0;2;0;23406;0;0;0;0;3;0;15026;0;0;0;0;4;0;21766;0;0;0;0;5;0;0;0;0;0;0;0;0;6;0;40148;0;0;0;0;0;0;7;0;35807;0;0;0;0;8;0;35199;0;0;0;0;9;0;19031;0;0;0;0
25.02.21;23:45:00;1;526;13040;0;2;0;23406;0;0;0;0;3;0;15026;0;0;0;0;4;0;21766;0;0;0;0;5;0;0;0;0;0;0;0;0;6;0;40148;0;0;0;0;0;0;7;0;35807;0;0;0;0;8;0;35199;0;0;0;0;9;0;19031;0;0;0;0
25.02.21;23:40:00;1;537;12995;0;2;0;23406;0;0;0;0;3;0;15026;0;0;0;0;4;0;21766;0;0;0;0;5;0;0;0;0;0;0;0;0;6;0;40148;0;0;0;0;0;0;7;0;35807;0;0;0;0;8;0;35199;0;0;0;0;9;0;19031;0;0;0;0
25.02.21;23:35:00;1;469;12948;0;2;0;23406;0;0;0;0;3;0;15026;0;0;0;0;4;0;21766;0;0;0;0;5;0;0;0;0;0;0;0;0;6;0;40148;0;0;0;0;0;0;7;0;35807;0;0;0;0;8;0;35199;0;0;0;0;9;0;19031;0;0;0;0
25.02.21;23:30:00;1;470;12909;0;2;0;23406;0;0;0;0;3;0;15026;0;0;0;0;4;0;21766;0;0;0;0;5;0;0;0;0;0;0;0;0;6;0;40148;0;0;0;0;0;0;7;0;35807;0;0;0;0;8;0;35199;0;0;0;0;9;0;19031;0;0;0;0
25.02.21;23:25:00;1;470;12870;0;2;0;23406;0;0;0;0;3;0;15026;0;0;0;0;4;0;21766;0;0;0;0;5;0;0;0;0;0;0;0;0;6;0;40148;0;0;0;0;0;0;7;0;35807;0;0;0;0;8;0;35199;0;0;0;0;9;0;19031;0;0;0;0
25.02.21;23:20:00;1;471;12831;0;2;0;23406;0;0;0;0;3;0;15026;0;0;0;0;4;0;21766;0;0;0;0;5;0;0;0;0;0;0;0;0;6;0;40148;0;0;0;0;0;0;7;0;35807;0;0;0;0;8;0;35199;0;0;0;0;9;0;19031;0;0;0;0
25.02.21;23:15:00;1;490;12791;0;2;0;23406;0;0;0;0;3;0;15026;0;0;0;0;4;0;21766;0;0;0;0;5;0;0;0;0;0;0;0;0;6;0;40148;0;0;0;0;0;0;7;0;35807;0;0;0;0;8;0;35199;0;0;0;0;9;0;19031;0;0;0;0
25.02.21;23:10:00;1;506;12750;0;2;0;23406;0;0;0;0;3;0;15026;0;0;0;0;4;0;21766;0;0;0;0;5;0;0;0;0;0;0;0;0;6;0;40148;0;0;0;0;0;0;7;0;35807;0;0;0;0;8;0;35199;0;0;0;0;9;0;19031;0;0;0;0
25.02.21;23:05:00;1;524;12708;0;2;0;23406;0;0;0;0;3;0;15026;0;0;0;0;4;0;21766;0;0;0;0;5;0;0;0;0;0;0;0;0;6;0;40148;0;0;0;0;0;0;7;0;35807;0;0;0;0;8;0;35199;0;0;0;0;9;0;19031;0;0;0;0
25.02.21;23:00:00;1;554;12664;0;2;0;23406;0;0;0;0;3;0;15026;0;0;0;0;4;0;21766;0;0;0;0;5;0;0;0;0;0;0;0;0;6;0;40148;0;0;0;0;0;0;7;0;35807;0;0;0;0;8;0;35199;0;0;0;0;9;0;19031;0;0;0;0
25.02.21;22:55:00;1;535;12619;0;2;0;23406;0;0;0;0;3;0;15026;0;0;0;0;4;0;21766;0;0;0;0;5;0;0;0;0;0;0;0;0;6;0;40148;2;0;0;0;0;0;7;0;35807;0;0;0;0;8;0;35199;0;0;0;0;9;0;19031;0;0;0;0
25.02.21;22:50:00;1;593;12574;0;2;0;23406;0;0;0;0;3;0;15026;0;0;0;0;4;0;21766;0;0;0;0;5;0;0;0;0;0;0;0;0;6;0;40148;2;0;0;0;0;0;7;0;35807;0;0;0;0;8;0;35199;0;0;0;0;9;0;19031;0;0;0;0
25.02.21;22:45:00;1;615;12524;0;2;0;23406;0;0;0;0;3;0;15026;0;0;0;0;4;0;21766;0;0;0;0;5;0;0;0;0;0;0;0;0;6;0;40148;2;0;0;0;0;0;7;0;35807;0;0;0;0;8;0;35199;0;0;0;0;9;0;19031;0;0;0;0
25.02.21;22:40:00;1;595;12473;0;2;0;23406;0;0;0;0;3;0;15026;0;0;0;0;4;0;21766;0;0;0;0;5;0;0;0;0;0;0;0;0;6;0;40148;2;0;0;0;0;0;7;0;35807;0;0;0;0;8;0;35199;0;0;0;0;9;0;19031;0;0;0;0
25.02.21;22:35:00;1;609;12422;0;2;0;23406;0;0;0;0;3;0;15026;0;0;0;0;4;0;21766;0;0;0;0;5;0;0;0;0;0;0;0;0;6;0;40148;2;0;0;0;0;0;7;0;35807;0;0;0;0;8;0;35199;0;0;0;0;9;0;19031;0;0;0;0
25.02.21;22:30:00;1;633;12372;0;2;0;23406;0;0;0;0;3;0;15026;0;0;0;0;4;0;21766;0;0;0;0;5;0;0;0;0;0;0;0;0;6;0;40148;2;0;0;0;0;0;7;0;35807;0;0;0;0;8;0;35199;0;0;0;0;9;0;19031;0;0;0;0
25.02.21;22:25:00;1;615;12319;0;2;0;23406;0;0;0;0;3;0;15026;0;0;0;0;4;0;21766;0;0;0;0;5;0;0;0;0;0;0;0;0;6;0;40148;2;0;0;0;0;0;7;0;35807;0;0;0;0;8;0;35199;0;0;0;0;9;0;19031;0;0;0;0
25.02.21;22:20:00;1;616;12268;0;2;0;23406;0;0;0;0;3;0;15026;0;0;0;0;4;0;21766;0;0;0;0;5;0;0;0;0;0;0;0;0;6;0;40148;2;0;0;0;0;0;7;0;35807;0;0;0;0;8;0;35199;0;0;0;0;9;0;19031;0;0;0;0
25.02.21;22:15:00;1;625;12216;0;2;0;23406;0;0;0;0;3;0;15026;0;0;0;0;4;0;21766;0;0;0;0;5;0;0;0;0;0;0;0;0;6;0;40148;2;0;0;0;0;0;7;0;35807;0;0;0;0;8;0;35199;0;0;0;0;9;0;19031;0;0;0;0
25.02.21;22:10:00;1;651;12164;0;2;0;23406;0;0;0;0;3;0;15026;0;0;0;0;4;0;21766;0;0;0;0;5;0;0;0;0;0;0;0;0;6;0;40148;2;0;0;0;0;0;7;0;35807;0;0;0;0;8;0;35199;0;0;0;0;9;0;19031;0;0;0;0
25.02.21;22:05:00;1;1400;12109;0;2;0;23406;0;0;0;0;3;0;15026;0;0;0;0;4;0;21766;0;0;0;0;5;0;0;0;0;0;0;0;0;6;0;40148;2;0;0;0;0;0;7;0;35807;0;0;0;0;8;0;35199;0;0;0;0;9;0;19031;0;0;0;0
25.02.21;22:00:00;1;792;12005;0;2;0;23406;0;0;0;0;3;0;15026;0;0;0;0;4;0;21766;0;0;0;0;5;0;0;0;0;0;0;0;0;6;0;40148;2;0;0;0;0;0;7;0;35807;0;0;0;0;8;0;35199;0;0;0;0;9;0;19031;0;0;0;0
25.02.21;21:55:00;1;712;11948;0;2;0;23406;0;0;0;0;3;0;15026;0;0;0;0;4;0;21766;0;0;0;0;5;0;0;0;0;0;0;0;0;6;0;40148;2;0;0;0;0;0;7;0;35807;0;0;0;0;8;0;35199;0;0;0;0;9;0;19031;0;0;0;0
25.02.21;21:50:00;1;808;11889;0;2;0;23406;0;0;0;0;3;0;15026;0;0;0;0;4;0;21766;0;0;0;0;5;0;0;0;0;0;0;0;0;6;0;40148;2;0;0;0;0;0;7;0;35807;0;0;0;0;8;0;35199;0;0;0;0;9;0;19031;0;0;0;0
25.02.21;21:45:00;1;785;11822;0;2;0;23406;0;0;0;0;3;0;15026;0;0;0;0;4;0;21766;0;0;0;0;5;0;0;0;0;0;0;0;0;6;0;40148;2;0;0;0;0;0;7;0;35807;0;0;0;0;8;0;35199;0;0;0;0;9;0;19031;0;0;0;0
25.02.21;21:40:00;1;679;11756;0;2;0;23406;0;0;0;0;3;0;15026;0;0;0;0;4;0;21766;0;0;0;0;5;0;0;0;0;0;0;0;0;6;0;40148;2;0;0;0;0;0;7;0;35807;0;0;0;0;8;0;35199;0;0;0;0;9;0;19031;0;0;0;0
25.02.21;21:35:00;1;626;11699;0;2;0;23406;0;0;0;0;3;0;15026;0;0;0;0;4;0;21766;0;0;0;0;5;0;0;0;0;0;0;0;0;6;0;40148;2;0;0;0;0;0;7;0;35807;0;0;0;0;8;0;35199;0;0;0;0;9;0;19031;0;0;0;0
25.02.21;21:30:00;1;608;11647;0;2;0;23406;0;0;0;0;3;0;15026;0;0;0;0;4;0;21766;0;0;0;0;5;0;0;0;0;0;0;0;0;6;0;40148;2;0;0;0;0;0;7;0;35807;0;0;0;0;8;0;35199;0;0;0;0;9;0;19031;0;0;0;0
25.02.21;21:25:00;1;602;11596;0;2;0;23406;0;0;0;0;3;0;15026;0;0;0;0;4;0;21766;0;0;0;0;5;0;0;0;0;0;0;0;0;6;0;40148;2;0;0;0;0;0;7;0;35807;0;0;0;0;8;0;35199;0;0;0;0;9;0;19031;0;0;0;0
25.02.21;21:20:00;1;610;11545;0;2;0;23406;0;0;0;0;3;0;15026;0;0;0;0;4;0;21766;0;0;0;0;5;0;0;0;0;0;0;0;0;6;0;40148;2;0;0;0;0;0;7;0;35807;0;0;0;0;8;0;35199;0;0;0;0;9;0;19031;0;0;0;0
25.02.21;21:15:00;1;626;11494;0;2;0;23406;0;0;0;0;3;0;15026;0;0;0;0;4;0;21766;0;0;0;0;5;0;0;0;0;0;0;0;0;6;0;40148;2;0;0;0;0;0;7;0;35807;0;0;0;0;8;0;35199;0;0;0;0;9;0;19031;0;0;0;0
25.02.21;21:10:00;1;628;11442;0;2;0;23406;0;0;0;0;3;0;15026;0;0;0;0;4;0;21766;0;0;0;0;5;0;0;0;0;0;0;0;0;6;0;40148;2;0;0;0;0;0;7;0;35807;0;0;0;0;8;0;35199;0;0;0;0;9;0;19031;0;0;0;0
25.02.21;21:05:00;1;649;11388;0;2;0;23406;0;0;0;0;3;0;15026;0;0;0;0;4;0;21766;0;0;0;0;5;0;0;0;0;0;0;0;0;6;0;40148;2;0;0;0;0;0;7;0;35807;0;0;0;0;8;0;35199;0;0;0;0;9;0;19031;0;0;0;0
25.02.21;21:00:00;1;656;11334;0;2;0;23406;0;0;0;0;3;0;15026;0;0;0;0;4;0;21766;0;0;0;0;5;0;0;0;0;0;0;0;0;6;0;40148;2;0;0;0;0;0;7;0;35807;0;0;0;0;8;0;35199;0;0;0;0;9;0;19031;0;0;0;0
25.02.21;20:55:00;1;689;11279;0;2;0;23406;0;0;0;0;3;0;15026;0;0;0;0;4;0;21766;0;0;0;0;5;0;0;0;0;0;0;0;0;6;0;40148;2;0;0;0;0;0;7;0;35807;0;0;0;0;8;0;35199;0;0;0;0;9;0;19031;0;0;0;0
25.02.21;20:50:00;1;704;11221;0;2;0;23406;0;0;0;0;3;0;15026;0;0;0;0;4;0;21766;0;0;0;0;5;0;0;0;0;0;0;0;0;6;0;40148;2;0;0;0;0;0;7;0;35807;0;0;0;0;8;0;35199;0;0;0;0;9;0;19031;0;0;0;0
25.02.21;20:45:00;1;656;11162;0;2;0;23406;0;0;0;0;3;0;15026;0;0;0;0;4;0;21766;0;0;0;0;5;0;0;0;0;0;0;0;0;6;0;40148;2;0;0;0;0;0;7;0;35807;0;0;0;0;8;0;35199;0;0;0;0;9;0;19031;0;0;0;0
25.02.21;20:40:00;1;727;11107;0;2;0;23406;0;0;0;0;3;0;15026;0;0;0;0;4;0;21766;0;0;0;0;5;0;0;0;0;0;0;0;0;6;0;40148;2;0;0;0;0;0;7;0;35807;0;0;0;0;8;0;35199;0;0;0;0;9;0;19031;0;0;0;0
25.02.21;20:35:00;1;738;11046;0;2;0;23406;0;0;0;0;3;0;15026;0;0;0;0;4;0;21766;0;0;0;0;5;0;0;0;0;0;0;0;0;6;0;40148;2;0;0;0;0;0;7;0;35807;0;0;0;0;8;0;35199;0;0;0;0;9;0;19031;0;0;0;0
25.02.21;20:30:00;1;582;10985;0;2;0;23406;0;0;0;0;3;0;15026;0;0;0;0;4;0;21766;0;0;0;0;5;0;0;0;0;0;0;0;0;6;0;40148;2;0;0;0;0;0;7;0;35807;0;0;0;0;8;0;35199;0;0;0;0;9;0;19031;0;0;0;0
25.02.21;20:25:00;1;628;10936;0;2;0;23406;0;0;0;0;3;0;15026;0;0;0;0;4;0;21766;0;0;0;0;5;0;0;0;0;0;0;0;0;6;0;40148;2;0;0;0;0;0;7;0;35807;0;0;0;0;8;0;35199;0;0;0;0;9;0;19031;0;0;0;0
25.02.21;20:20:00;1;600;10883;0;2;0;23406;0;0;0;0;3;0;15026;0;0;0;0;4;0;21766;0;0;0;0;5;0;0;0;0;0;0;0;0;6;0;40148;2;0;0;0;0;0;7;0;35807;0;0;0;0;8;0;35199;0;0;0;0;9;0;19031;0;0;0;0
25.02.21;20:15:00;1;419;10834;0;2;0;23406;0;0;0;0;3;0;15026;0;0;0;0;4;0;21766;0;0;0;0;5;0;0;0;0;0;0;0;0;6;0;40148;2;0;0;0;0;0;7;0;35807;0;0;0;0;8;0;35199;0;0;0;0;9;0;19031;0;0;0;0
25.02.21;20:10:00;1;352;10800;0;2;0;23406;0;0;0;0;3;0;15026;0;0;0;0;4;0;21766;0;0;0;0;5;0;0;0;0;0;0;0;0;6;0;40148;2;0;0;0;0;0;7;0;35807;0;0;0;0;8;0;35199;0;0;0;0;9;0;19031;0;0;0;0
25.02.21;20:05:00;1;367;10770;0;2;0;23406;0;0;0;0;3;0;15026;0;0;0;0;4;0;21766;0;0;0;0;5;0;0;0;0;0;0;0;0;6;0;40148;2;0;0;0;0;0;7;0;35807;0;0;0;0;8;0;35199;0;0;0;0;9;0;19031;0;0;0;0
25.02.21;20:00:00;1;474;10739;0;2;0;23406;0;0;0;0;3;0;15026;0;0;0;0;4;0;21766;0;0;0;0;5;0;0;0;0;0;0;0;0;6;0;40148;2;0;0;0;0;0;7;0;35807;0;0;0;0;8;0;35199;0;0;0;0;9;0;19031;0;0;0;0
25.02.21;19:55:00;1;610;10699;0;2;0;23406;0;0;0;0;3;0;15026;0;0;0;0;4;0;21766;0;0;0;0;5;0;0;0;0;0;0;0;0;6;0;40148;2;0;0;0;0;0;7;0;35807;0;0;0;0;8;0;35199;0;0;0;0;9;0;19031;0;0;0;0
25.02.21;19:50:00;1;1784;10646;0;2;0;23406;0;0;0;0;3;0;15026;0;0;0;0;4;0;21766;0;0;0;0;5;0;0;0;0;0;0;0;0;6;0;40148;2;0;0;0;0;0;7;0;35807;0;0;0;0;8;0;35199;0;0;0;0;9;0;19031;0;0;0;0
25.02.21;19:45:00;1;2634;10504;0;2;0;23406;0;0;0;0;3;0;15026;0;0;0;0;4;0;21766;0;0;0;0;5;0;0;0;0;0;0;0;0;6;0;40148;2;0;0;0;0;0;7;0;35807;0;0;0;0;8;0;35199;0;0;0;0;9;0;19031;0;0;0;0
25.02.21;19:40:00;1;2661;10285;0;2;0;23406;0;0;0;0;3;0;15026;0;0;0;0;4;0;21766;0;0;0;0;5;0;0;0;0;0;0;0;0;6;0;40148;2;0;0;0;0;0;7;0;35807;0;0;0;0;8;0;35199;0;0;0;0;9;0;19031;0;0;0;0
25.02.21;19:35:00;1;2647;10063;0;2;0;23406;0;0;0;0;3;0;15026;0;0;0;0;4;0;21766;0;0;0;0;5;0;0;0;0;0;0;0;0;6;0;40148;0;0;0;0;0;0;7;0;35807;0;0;0;0;8;0;35199;0;0;0;0;9;0;19031;0;0;0;0
25.02.21;19:30:00;1;1137;9842;0;2;0;23406;0;0;0;0;3;0;15026;0;0;0;0;4;0;21766;0;0;0;0;5;0;0;0;0;0;0;0;0;6;0;40148;2;0;0;0;0;0;7;0;35807;0;0;0;0;8;0;35199;0;0;0;0;9;0;19031;0;0;0;0
25.02.21;19:25:00;1;742;9727;0;2;0;23406;0;0;0;0;3;0;15026;0;0;0;0;4;0;21766;0;0;0;0;5;0;0;0;0;0;0;0;0;6;0;40148;2;0;0;0;0;0;7;0;35807;0;0;0;0;8;0;35199;0;0;0;0;9;0;19031;0;0;0;0
25.02.21;19:20:00;1;736;9665;0;2;0;23406;0;0;0;0;3;0;15026;0;0;0;0;4;0;21766;0;0;0;0;5;0;0;0;0;0;0;0;0;6;0;40148;2;0;0;0;0;0;7;0;35807;0;0;0;0;8;0;35199;0;0;0;0;9;0;19031;0;0;0;0
25.02.21;19:15:00;1;775;9599;0;2;0;23406;0;0;0;0;3;0;15026;0;0;0;0;4;0;21766;0;0;0;0;5;0;0;0;0;0;0;0;0;6;0;40148;2;0;0;0;0;0;7;0;35807;0;0;0;0;8;0;35199;0;0;0;0;9;0;19031;0;0;0;0
25.02.21;19:10:00;1;678;9537;0;2;0;23406;0;0;0;0;3;0;15026;0;0;0;0;4;0;21766;0;0;0;0;5;0;0;0;0;0;0;0;0;6;0;40148;2;0;0;0;0;0;7;0;35807;0;0;0;0;8;0;35199;0;0;0;0;9;0;19031;0;0;0;0
25.02.21;19:05:00;1;717;9485;0;2;0;23406;0;0;0;0;3;0;15026;0;0;0;0;4;0;21766;0;0;0;0;5;0;0;0;0;0;0;0;0;6;0;40148;2;0;0;0;0;0;7;0;35807;0;0;0;0;8;0;35199;0;0;0;0;9;0;19031;0;0;0;0
25.02.21;19:00:00;1;438;9440;0;2;0;23406;0;0;0;0;3;0;15026;0;0;0;0;4;0;21766;0;0;0;0;5;0;0;0;0;0;0;0;0;6;0;40148;2;0;0;0;0;0;7;0;35807;0;0;0;0;8;0;35199;0;0;0;0;9;0;19031;0;0;0;0
25.02.21;18:55:00;1;1814;9404;0;2;0;23406;0;0;0;0;3;0;15026;0;0;0;0;4;0;21766;0;0;0;0;5;0;0;0;0;0;0;0;0;6;0;40148;2;0;0;0;0;0;7;0;35807;0;0;0;0;8;0;35199;0;0;0;0;9;0;19031;0;0;0;0
25.02.21;18:50:00;1;2746;9265;0;2;0;23406;0;0;0;0;3;0;15026;0;0;0;0;4;0;21766;0;0;0;0;5;0;0;0;0;0;0;0;0;6;0;40148;2;0;0;0;0;0;7;0;35807;0;0;0;0;8;0;35199;0;0;0;0;9;0;19031;0;0;0;0
25.02.21;18:45:00;1;2890;9037;0;2;0;23406;0;0;0;0;3;0;15026;0;0;0;0;4;0;21766;0;0;0;0;5;0;0;0;0;0;0;0;0;6;0;40148;2;0;0;0;0;0;7;0;35807;0;0;0;0;8;0;35199;0;0;0;0;9;0;19031;0;0;0;0
25.02.21;18:40:00;1;2115;8771;0;2;0;23406;0;0;0;0;3;0;15026;0;0;0;0;4;0;21766;0;0;0;0;5;0;0;0;0;0;0;0;0;6;0;40148;2;0;0;0;0;0;7;0;35807;0;0;0;0;8;0;35199;0;0;0;0;9;0;19031;0;0;0;0
25.02.21;18:35:00;1;2232;8564;0;2;0;23406;0;0;0;0;3;0;15026;0;0;0;0;4;0;21766;0;0;0;0;5;0;0;0;0;0;0;0;0;6;0;40148;2;0;0;0;0;0;7;0;35807;0;0;0;0;8;0;35199;0;0;0;0;9;0;19031;0;0;0;0
25.02.21;18:30:00;1;2140;8385;0;2;0;23406;0;0;0;0;3;0;15026;0;0;0;0;4;0;21766;0;0;0;0;5;0;0;0;0;0;0;0;0;6;0;40148;2;0;0;0;0;0;7;0;35807;0;0;0;0;8;0;35199;0;0;0;0;9;0;19031;0;0;0;0
25.02.21;18:25:00;1;2290;8209;0;2;0;23406;0;0;0;0;3;0;15026;0;0;0;0;4;0;21766;0;0;0;0;5;0;0;0;0;0;0;0;0;6;0;40148;2;0;0;0;0;0;7;0;35807;0;0;0;0;8;0;35199;0;0;0;0;9;0;19031;0;0;0;0
25.02.21;18:20:00;1;1531;8057;0;2;0;23406;0;0;0;0;3;0;15026;0;0;0;0;4;0;21766;0;0;0;0;5;0;0;0;0;0;0;0;0;6;0;40148;2;0;0;0;0;0;7;0;35807;0;0;0;0;8;0;35199;0;0;0;0;9;0;19031;0;0;0;0
25.02.21;18:15:00;1;3956;7927;0;2;0;23406;0;0;0;0;3;0;15026;0;0;0;0;4;0;21766;0;0;0;0;5;0;0;0;0;0;0;0;0;6;0;40148;2;0;0;0;0;0;7;0;35807;0;0;0;0;8;0;35199;0;0;0;0;9;0;19031;0;0;0;0
25.02.21;18:10:00;1;861;7598;0;2;0;23406;0;0;62;4;3;0;15026;0;0;138;10;4;0;21766;0;0;0;0;5;0;0;0;0;0;0;0;0;6;0;40148;0;0;0;0;0;0;7;0;35807;0;0;0;0;8;0;35199;0;0;0;0;9;0;19031;0;0;0;0
25.02.21;18:05:00;1;405;7516;0;2;0;23406;6;0;291;19;3;0;15026;6;0;334;21;4;0;21766;0;0;59;19;5;0;0;0;0;0;0;0;0;6;0;40148;2;0;0;0;0;0;7;0;35807;0;0;0;0;8;0;35199;0;0;0;0;9;0;19031;0;0;0;0
25.02.21;18:00:00;1;305;7482;0;2;0;23406;6;0;337;19;3;0;15026;6;1;394;21;4;0;21766;1;0;121;24;5;0;0;0;0;0;0;0;0;6;0;40148;2;5;2;249;236;23;7;0;35807;0;0;182;18;8;0;35199;0;0;183;18;9;0;19031;0;0;233;19
25.02.21;17:55:00;1;301;7456;0;2;0;23406;6;0;364;20;3;0;15026;6;4;415;22;4;0;21766;1;0;167;25;5;0;0;0;0;0;0;0;0;6;0;40148;23;3;6;459;249;28;7;0;35807;6;0;337;28;8;0;35199;6;0;340;28;9;0;19031;6;0;350;23
25.02.21;17:50:00;1;270;7431;0;2;0;23406;6;0;383;21;3;1;15026;6;3;466;22;4;0;21766;1;0;205;25;5;0;0;0;0;0;0;0;0;6;0;40148;23;8;0;273;551;29;7;0;35807;6;0;405;29;8;0;35199;6;0;397;28;9;0;19031;6;1;401;24
25.02.21;17:45:00;1;290;7408;0;2;0;23406;6;0;396;21;3;1;15026;6;5;480;22;4;0;21766;3;0;202;26;5;0;0;0;0;0;0;0;0;6;0;40148;1;9;0;313;567;29;7;0;35807;6;2;426;29;8;0;35199;6;2;429;29;9;2;19031;6;5;434;24
25.02.21;17:40:00;1;311;7384;0;2;21;23406;6;37;381;22;3;0;15026;6;0;525;23;4;6;21766;3;6;199;26;5;0;0;0;0;0;0;0;0;6;32;40148;1;21;12;498;334;30;7;1;35807;6;7;458;30;8;0;35199;6;6;457;29;9;2;19031;6;7;476;25
25.02.21;17:35:00;1;311;7357;0;2;77;23404;4;108;351;23;3;5;15026;3;11;515;23;4;21;21766;3;22;198;27;5;0;0;0;0;0;0;0;0;6;65;40145;4;52;25;451;213;31;7;33;35807;6;65;415;31;8;25;35198;6;58;401;30;9;6;19030;6;13;483;25
25.02.21;17:30:00;1;272;7331;0;2;150;23398;4;184;372;24;3;81;15025;4;116;452;24;4;91;21764;3;95;206;27;5;0;0;0;0;0;0;0;0;6;89;40140;4;69;35;451;213;31;7;107;35805;4;145;419;31;8;78;35197;4;117;414;30;9;5;19030;6;8;536;26
25.02.21;17:25:00;1;251;7307;0;2;218;23386;4;258;373;25;3;117;15019;4;151;402;25;4;152;21757;5;158;218;28;5;0;0;0;0;0;0;0;0;6;117;40132;4;78;39;451;213;31;7;194;35796;4;229;431;31;8;128;35190;4;164;406;31;9;8;19030;6;11;535;26
25.02.21;17:20:00;1;284;7286;0;2;327;23367;4;371;360;25;3;188;15009;4;226;394;25;4;244;21744;5;254;226;28;5;0;0;0;0;0;0;0;0;6;154;40122;4;119;59;451;213;31;7;319;35780;4;360;444;32;8;198;35179;4;242;437;31;9;66;19029;4;100;461;27
25.02.21;17:15:00;1;321;7263;0;2;434;23341;4;479;351;26;3;256;14994;4;294;395;26;4;335;21724;5;349;213;29;5;0;0;0;0;0;0;0;0;6;231;40109;4;120;101;451;356;31;7;446;35754;4;487;446;32;8;290;35163;4;334;456;32;9;88;19024;4;120;489;28
25.02.21;17:10:00;1;320;7237;0;2;585;23304;4;640;385;27;3;353;14972;4;397;415;26;4;461;21696;5;481;209;29;5;0;0;0;0;0;0;0;0;6;386;40088;4;178;200;539;537;31;7;665;35717;4;720;450;33;8;277;35139;4;308;294;21;9;110;19016;4;147;508;28
25.02.21;17:05:00;1;336;7208;0;2;686;23256;4;742;367;28;3;405;14943;4;450;426;27;4;548;21658;5;571;221;30;5;0;0;0;0;0;0;0;0;6;468;40056;4;255;265;567;545;31;7;853;35662;4;916;460;33;8;537;35104;4;587;458;32;9;129;19007;4;162;507;29
25.02.21;17:00:00;1;330;7180;0;2;846;23199;4;906;354;29;3;517;14909;4;565;416;27;4;647;21612;5;674;223;30;5;0;0;0;0;0;0;0;0;6;583;40016;4;279;292;567;547;32;7;1069;35590;4;1139;462;34;8;705;35058;4;761;454;33;9;150;18996;4;189;523;29
25.02.21;16:55:00;1;302;7153;0;2;998;23129;4;1064;356;30;3;603;14867;4;657;411;27;4;745;21558;5;776;224;31;5;0;0;0;0;0;0;0;0;6;696;39967;4;360;367;574;550;32;7;1251;35503;4;1328;467;34;8;769;35000;4;821;382;34;9;173;18984;4;210;501;30
25.02.21;16:50:00;1;308;7128;0;2;1166;23046;4;1238;356;30;3;703;14817;4;758;412;28;4;875;21497;5;912;226;31;5;0;0;0;0;0;0;0;0;6;842;39908;4;429;436;575;545;32;7;1478;35398;4;1566;461;34;8;1074;34935;4;1133;369;34;9;201;18969;4;240;499;30
25.02.21;16:45:00;1;363;7103;0;2;1330;22950;4;1406;356;31;3;783;14759;4;838;406;28;4;1010;21424;5;1052;235;31;5;0;0;0;0;0;0;0;0;6;969;39838;4;486;495;576;550;32;7;1661;35276;4;1751;463;35;8;1345;34848;4;1415;407;34;9;225;18953;4;261;484;31
25.02.21;16:40:00;1;360;7071;0;2;1468;22839;4;1553;359;32;3;859;14694;4;921;420;29;4;1085;21340;5;1130;228;32;5;0;0;0;0;0;0;0;0;6;1116;39756;4;574;576;576;552;32;7;1850;35138;4;1946;461;35;8;1653;34737;4;1739;432;35;9;236;18934;4;271;386;32
25.02.21;16:35:00;1;300;7038;0;2;1605;22718;4;1693;370;33;3;909;14623;4;970;415;29;4;1155;21251;5;1203;238;32;5;0;0;0;0;0;0;0;0;6;1240;39663;4;634;646;578;552;32;7;2001;34985;4;2110;461;36;8;1855;34601;4;1954;446;35;9;297;18914;4;331;360;33
25.02.21;16:30:00;1;251;7013;0;2;1759;22584;4;1855;370;34;3;973;14547;4;1038;409;29;4;1253;21154;5;1305;236;32;5;0;0;0;0;0;0;0;0;6;1400;39558;4;700;699;579;554;33;7;2173;34818;4;2292;462;36;8;2080;34447;4;2189;452;36;9;609;18889;4;656;359;34
25.02.21;16:25:00;1;273;6991;0;2;1867;22438;4;1967;369;35;3;1026;14466;4;1091;408;30;4;1271;21050;5;1324;231;33;5;0;0;0;0;0;0;0;0;6;1529;39441;4;767;746;577;555;33;7;2302;34638;4;2425;461;36;8;2245;34274;4;2363;458;36;9;854;18840;4;909;378;35
25.02.21;16:20:00;1;293;6969;0;2;1987;22282;4;2096;375;35;3;1087;14380;4;1155;412;30;4;1305;20944;5;1359;222;33;5;0;0;0;0;0;0;0;0;6;1685;39312;4;844;843;577;554;33;7;2458;34445;4;2590;462;37;8;2413;34086;4;2535;457;37;9;1044;18768;4;1111;420;36
25.02.21;16:15:00;1;332;6944;0;2;2081;22118;4;2194;373;36;3;1141;14290;4;1209;410;30;4;1319;20835;5;1374;209;33;5;0;0;0;0;0;0;0;0;6;1822;39171;4;935;904;578;552;33;7;2591;34241;4;2729;460;37;8;2549;33886;4;2680;460;37;9;1162;18682;4;1234;439;37
25.02.21;16:10:00;1;311;6916;0;2;2239;21944;4;2359;373;37;3;1215;14195;4;1288;414;31;4;1362;20725;5;1419;199;34;5;0;0;0;0;0;0;0;0;6;2011;39018;4;1016;999;577;553;33;7;2787;34025;4;2923;453;37;8;2728;33675;4;2866;452;37;9;1333;18585;4;1420;477;37
25.02.21;16:05:00;1;292;6887;0;2;2338;21758;4;2461;367;38;3;1270;14094;4;1344;407;31;4;1357;20612;5;1413;200;34;5;0;0;0;0;0;0;0;0;6;2163;38850;4;1104;1082;576;551;33;7;2926;33793;4;3073;454;38;8;2878;33447;4;3026;454;38;9;1471;18476;4;1565;491;38
25.02.21;16:00:00;1;306;6863;0;2;2489;21562;4;2621;378;38;3;1362;13988;4;1440;406;31;4;1349;20498;5;1405;219;35;5;0;0;0;0;0;0;0;0;6;2330;38668;4;1156;1146;577;551;33;7;3071;33549;4;3233;454;38;8;3033;33205;4;3180;453;38;9;1596;18351;4;1698;502;38
25.02.21;15:55:00;1;258;6838;0;2;2621;21356;4;2762;382;39;3;1418;13874;4;1497;401;32;4;1462;20386;5;1523;211;35;5;0;0;0;0;0;0;0;0;6;2485;38473;4;1271;1244;578;552;34;7;3187;33293;4;3353;450;38;8;3158;32952;4;3315;447;38;9;1694;18218;4;1796;506;39
25.02.21;15:50:00;1;304;6816;0;2;2713;21137;4;2860;382;40;3;1470;13756;4;1553;404;32;4;1532;20264;5;1595;217;35;5;0;0;0;0;0;0;0;0;6;2651;38264;4;1342;1324;572;555;34;7;3326;33028;4;3490;448;39;8;3286;32692;4;3448;454;38;9;1769;18078;4;1879;499;39
25.02.21;15:45:00;1;326;6791;0;2;2766;20911;4;2913;376;40;3;1500;13634;4;1583;403;32;4;1572;20137;5;1638;210;36;5;0;0;0;0;0;0;0;0;6;2768;38043;4;1416;1395;573;549;34;7;3418;32752;4;3589;448;39;8;3377;32416;4;3550;452;38;9;1826;17929;4;1935;497;39
25.02.21;15:40:00;1;349;6763;0;2;2876;20680;4;3030;381;40;3;1548;13509;4;1628;399;33;4;1629;20005;5;1697;220;37;5;0;0;0;0;0;0;0;0;6;2915;37811;4;1487;1446;570;548;34;7;3543;32466;4;3720;444;39;8;3503;32135;4;3677;449;39;9;1899;17777;4;2012;498;40
25.02.21;15:35:00;1;252;6734;0;2;2961;20440;4;3119;376;41;3;1593;13380;4;1674;399;33;4;1737;19869;5;1810;230;37;5;0;0;0;0;0;0;0;0;6;3063;37566;4;1565;1519;569;548;34;7;3652;32171;4;3846;448;39;8;3630;31843;4;3806;447;39;9;1974;17619;4;2089;498;40
25.02.21;15:30:00;1;265;6713;0;2;3041;20194;4;3203;385;41;3;1634;13247;4;1720;397;33;4;1887;19725;5;1965;232;38;5;0;0;0;0;0;0;0;0;6;3227;37310;4;1666;1622;568;549;34;7;3773;31867;4;3955;442;39;8;3746;31546;4;3928;444;39;9;2038;17457;4;2157;495;40
25.02.21;15:25:00;1;291;6691;0;2;3113;19941;4;3276;379;42;3;1691;13111;4;1780;410;34;4;1999;19569;5;2082;232;38;5;0;0;0;0;0;0;0;0;6;3352;37040;4;1735;1675;566;545;34;7;3867;31553;4;4066;443;39;8;3838;31230;4;4030;440;39;9;2097;17285;4;2221;489;41
25.02.21;15:20:00;1;295;6667;0;2;3169;19682;4;3339;377;42;3;1740;12970;4;1830;410;34;4;2125;19402;5;2213;229;39;5;0;0;0;0;0;0;0;0;6;3492;36759;4;1803;1739;565;546;34;7;3968;31231;4;4169;437;40;8;3946;30912;4;4138;444;39;9;2145;17111;4;2275;491;41
25.02.21;15:15:00;1;318;6642;0;2;3225;19418;4;3396;381;42;3;1775;12826;4;1868;409;34;4;2229;19226;5;2322;230;39;5;0;0;0;0;0;0;0;0;6;3622;36467;4;1891;1848;561;546;35;7;2439;30901;4;2558;263;24;8;4038;30582;4;4233;440;39;9;2207;16932;4;2334;487;41
25.02.21;15:10:00;1;308;6616;0;2;3262;19149;4;3438;378;42;3;1803;12678;4;1898;402;35;4;2352;19041;5;2450;227;40;5;0;0;0;0;0;0;0;0;6;3733;36165;4;1921;1862;558;543;35;7;4155;30562;4;4361;436;40;8;4108;30246;4;4320;442;40;9;2256;16748;4;2387;491;41
25.02.21;15:05:00;1;303;6590;0;2;3324;18877;4;3495;370;43;3;1859;12528;4;1958;415;35;4;2440;18845;5;2542;226;40;5;0;0;0;0;0;0;0;0;6;3859;35853;4;2013;1946;561;540;35;7;4225;30222;4;4431;434;40;8;4182;29909;4;4395;442;39;9;2298;16564;4;2427;488;41
25.02.21;15:00:00;1;313;6565;0;2;3353;18600;4;3528;378;43;3;1894;12373;4;1993;412;35;4;2562;18642;5;2669;229;40;5;0;0;0;0;0;0;0;0;6;3971;35531;4;2041;1983;557;543;35;7;4302;29864;4;4513;440;40;8;4271;29554;4;4482;437;40;9;2346;16368;4;2477;484;41
25.02.21;14:55:00;1;696;6539;0;2;3410;18321;4;3585;371;43;3;1912;12215;4;2014;417;36;4;2659;18429;5;2769;227;41;5;0;0;0;0;0;0;0;0;6;4080;35199;4;2093;2015;553;539;35;7;4366;29506;4;4582;439;40;8;4342;29199;4;4559;440;40;9;2389;16173;4;2521;485;41
25.02.21;14:50:00;1;359;6438;0;2;3458;18037;4;3638;368;43;3;2007;12055;4;2117;432;36;4;2776;18207;5;2892;227;41;5;0;0;0;0;0;0;0;0;6;4217;34858;4;2185;2111;555;536;35;7;4457;29145;4;4674;438;40;8;4428;28841;4;4646;438;39;9;2444;15975;4;2579;484;41
25.02.21;14:45:00;1;382;6408;0;2;3492;17749;4;3674;370;43;3;2126;11888;4;2242;456;37;4;2856;17976;5;2976;225;41;5;0;0;0;0;0;0;0;0;6;4317;34506;4;2229;2163;557;536;35;7;3768;28770;4;3945;362;33;8;4489;28468;4;4707;433;39;9;2478;15772;4;2618;488;41
25.02.21;14:40:00;1;377;6375;0;2;3547;17459;4;3727;371;44;3;2250;11711;4;2377;474;37;4;2970;17738;5;3093;225;42;5;0;0;0;0;0;0;0;0;6;4437;34146;4;2295;2224;554;538;35;7;4590;28395;4;4816;433;39;8;3798;28095;4;3984;359;32;9;2518;15564;4;2660;487;40
25.02.21;14:35:00;1;316;6342;0;2;3594;17164;4;3775;372;44;3;2334;11524;4;2460;472;37;4;3049;17491;5;3176;225;42;5;0;0;0;0;0;0;0;0;6;4565;33775;4;2339;2272;556;537;35;7;4660;28011;4;4887;437;39;8;4656;27716;4;4879;436;39;9;2573;15354;4;2714;485;40
25.02.21;14:30:00;1;333;6314;0;2;3635;16864;4;3816;367;44;3;2371;11329;4;2495;473;37;4;3133;17237;5;3263;223;42;5;0;0;0;0;0;0;0;0;6;4683;33394;4;2411;2333;554;535;35;7;4750;27623;4;4979;426;39;8;4728;27327;4;4954;429;39;9;2615;15140;4;2757;483;40
25.02.21;14:25:00;1;335;6287;0;2;3682;16561;4;3866;366;44;3;2393;11132;4;2522;469;37;4;3216;16976;5;3349;223;42;5;0;0;0;0;0;0;0;0;6;4777;33003;4;2485;2384;552;532;35;7;4026;27230;4;4212;356;32;8;1586;26937;4;1666;141;13;9;1322;14924;4;1398;242;20
25.02.21;14:20:00;1;336;6259;0;2;3730;16254;4;3920;370;44;3;2426;10932;4;2557;473;37;4;3305;16708;5;3443;225;42;5;0;0;0;0;0;0;0;0;6;4899;32604;4;2551;2451;552;530;36;7;4898;26829;4;5137;437;39;8;4862;26544;4;5100;437;39;9;2689;14705;4;2840;483;40